This is the latest recevied weather packets stored in our database for station/object KO4LFZ. If no packets are shown the sender has not sent any weather packets the latest 10 day(s).
| Time | Temp. | Humidity | Pressure | Rain* | Wind** | Luminosity | Snow |
|---|---|---|---|---|---|---|---|
| 1777357431 | 23.89° C | 72% | 1010.6 hPa | 0 mm | - | 0 W/m² | - |
| 1777357128 | 24.44° C | 69% | 1010.7 hPa | 0 mm | - | 0 W/m² | - |
| 1777356825 | 25° C | 69% | 1011 hPa | 0 mm | - | 0 W/m² | - |
| 1777356523 | 25° C | 82% | 1010.2 hPa | 0 mm | - | 0 W/m² | - |
| 1777356219 | 24.44° C | 89% | 1010.4 hPa | 0 mm | - | 0 W/m² | - |
| 1777355916 | 24.44° C | 89% | 1009.5 hPa | 0 mm | - | 0 W/m² | - |
| 1777355613 | 25° C | 89% | 1009.5 hPa | 0 mm | - | 0 W/m² | - |
| 1777355310 | 25° C | 88% | 1008.8 hPa | 0 mm | - | 0 W/m² | - |
| 1777355006 | 25° C | 88% | 1007.9 hPa | 0 mm | - | 0 W/m² | - |
| 1777354702 | 25° C | 88% | 1008.2 hPa | 0 mm | - | 0 W/m² | - |
| 1777354397 | 25.56° C | 87% | 1008.7 hPa | 1.27 mm | - | 0 W/m² | - |
| 1777354095 | 25.56° C | 86% | 1009.1 hPa | 1.27 mm | - | 0 W/m² | - |
| 1777353791 | 25.56° C | 88% | 1009.7 hPa | 0 mm | - | 0 W/m² | - |
| 1777353489 | 25.56° C | 85% | 1010.4 hPa | 0 mm | - | 0 W/m² | - |
| 1777353187 | 25.56° C | 85% | 1010.1 hPa | 0 mm | - | 0 W/m² | - |
| 1777352884 | 26.11° C | 83% | 1010.2 hPa | 0 mm | - | 0 W/m² | - |
| 1777352583 | 26.11° C | 83% | 1010.2 hPa | 0 mm | - | 0 W/m² | - |
| 1777352280 | 26.67° C | 81% | 1010.4 hPa | 0 mm | - | 0 W/m² | - |
| 1777351977 | 26.11° C | 82% | 1010.8 hPa | 0 mm | - | 0 W/m² | - |
| 1777351675 | 26.11° C | 82% | 1010.8 hPa | 0 mm | - | 0 W/m² | - |
| 1777351372 | 26.67° C | 81% | 1010.3 hPa | 0 mm | - | 0 W/m² | - |
| 1777351066 | 26.67° C | 81% | 1010.2 hPa | 0 mm | - | 0 W/m² | - |
| 1777350764 | 26.11° C | 81% | 1010.3 hPa | 0 mm | - | 0 W/m² | - |
| 1777350459 | 26.11° C | 81% | 1009.9 hPa | 0 mm | - | 0 W/m² | - |
| 1777350157 | 26.11° C | 80% | 1010.1 hPa | 0 mm | - | 0 W/m² | - |
* Rain latest hour (hover to see other rain measurements)
** Current wind speed in m/s (hover to see current wind gust speed)